TimeCDT,TemperatureF,Dew PointF,Humidity,Sea Level PressureIn,VisibilityMPH,Wind Direction,Wind SpeedMPH,Gust SpeedMPH,PrecipitationIn,Events,Conditions,WindDirDegrees,DateUTC
12:15 AM,54.5,46.8,75,29.95,10.0,SE,5.8,-,N/A,,Clear,130,2013-09-24 05:15:00
12:35 AM,54.3,46.2,74,29.95,10.0,ESE,4.6,-,N/A,,Clear,110,2013-09-24 05:35:00
12:55 AM,52.3,45.7,78,29.95,10.0,East,5.8,-,N/A,,Clear,100,2013-09-24 05:55:00
1:15 AM,51.1,45.5,81,29.96,10.0,ESE,4.6,-,N/A,,Clear,120,2013-09-24 06:15:00
1:35 AM,51.4,45.5,80,29.96,10.0,ESE,5.8,-,N/A,,Clear,120,2013-09-24 06:35:00
1:55 AM,51.6,45.5,80,29.95,10.0,ESE,4.6,-,N/A,,Clear,120,2013-09-24 06:55:00
2:35 AM,50.2,45.5,84,29.95,10.0,East,5.8,-,N/A,,Clear,100,2013-09-24 07:35:00
2:55 AM,49.8,46.2,87,29.94,10.0,East,6.9,-,N/A,,Clear,90,2013-09-24 07:55:00
3:15 AM,51.1,46.9,86,29.93,10.0,East,6.9,-,N/A,,Clear,100,2013-09-24 08:15:00
3:35 AM,51.1,47.3,87,29.93,10.0,East,8.1,-,N/A,,Clear,100,2013-09-24 08:35:00
3:55 AM,51.4,47.3,86,29.93,10.0,East,8.1,-,N/A,,Clear,100,2013-09-24 08:55:00
4:35 AM,50.9,47.5,88,29.93,10.0,ESE,8.1,-,N/A,,Clear,110,2013-09-24 09:35:00
4:55 AM,51.1,47.7,88,29.93,10.0,ESE,6.9,-,N/A,,Clear,110,2013-09-24 09:55:00
5:15 AM,51.3,47.7,87,29.93,10.0,ESE,6.9,-,N/A,,Clear,110,2013-09-24 10:15:00
5:35 AM,50.9,47.7,89,29.93,10.0,East,8.1,-,N/A,,Clear,100,2013-09-24 10:35:00
5:55 AM,50.5,47.7,90,29.93,10.0,East,6.9,-,N/A,,Clear,100,2013-09-24 10:55:00
6:15 AM,50.4,47.7,90,29.93,10.0,East,6.9,-,N/A,,Clear,100,2013-09-24 11:15:00
6:35 AM,50.5,47.7,90,29.93,10.0,East,6.9,-,N/A,,Clear,100,2013-09-24 11:35:00
6:55 AM,50.5,47.8,90,29.93,10.0,ESE,8.1,-,N/A,,Clear,110,2013-09-24 11:55:00
7:15 AM,50.9,47.8,89,29.93,10.0,ESE,8.1,-,N/A,,Clear,110,2013-09-24 12:15:00
7:35 AM,52.3,49.1,89,29.93,10.0,ESE,8.1,-,N/A,,Clear,110,2013-09-24 12:35:00
7:55 AM,54.1,49.5,84,29.93,10.0,ESE,9.2,-,N/A,,Clear,120,2013-09-24 12:55:00
8:15 AM,55.4,49.8,81,29.93,10.0,ESE,9.2,-,N/A,,Clear,110,2013-09-24 13:15:00
8:35 AM,57.6,50.4,77,29.93,10.0,ESE,9.2,-,N/A,,Clear,120,2013-09-24 13:35:00
8:55 AM,59.2,50.5,73,29.93,10.0,ESE,9.2,-,N/A,,Clear,110,2013-09-24 13:55:00
9:15 AM,61.2,50.9,69,29.93,10.0,SE,9.2,-,N/A,,Clear,130,2013-09-24 14:15:00
9:35 AM,62.8,51.4,66,29.93,10.0,ESE,8.1,-,N/A,,Clear,110,2013-09-24 14:35:00
9:55 AM,63.5,52.0,66,29.93,10.0,SE,6.9,-,N/A,,Clear,130,2013-09-24 14:55:00
10:15 AM,65.1,52.7,64,29.93,10.0,ESE,5.8,-,N/A,,Scattered Clouds,110,2013-09-24 15:15:00
10:35 AM,68.0,53.4,60,29.92,10.0,ESE,9.2,-,N/A,,Clear,120,2013-09-24 15:35:00
10:55 AM,70.3,53.8,56,29.92,10.0,ESE,9.2,-,N/A,,Clear,110,2013-09-24 15:55:00
11:15 AM,72.0,54.5,54,29.92,10.0,SE,6.9,-,N/A,,Clear,130,2013-09-24 16:15:00
11:35 AM,72.5,54.5,53,29.91,10.0,ESE,11.5,-,N/A,,Clear,120,2013-09-24 16:35:00
11:55 AM,73.8,54.5,51,29.90,10.0,ESE,9.2,-,N/A,,Clear,120,2013-09-24 16:55:00
12:15 PM,75.6,54.5,48,29.90,10.0,East,8.1,-,N/A,,Clear,100,2013-09-24 17:15:00
12:55 PM,76.5,52.3,43,29.89,10.0,East,9.2,-,N/A,,Scattered Clouds,100,2013-09-24 17:55:00
1:15 PM,75.2,52.5,45,29.89,10.0,ESE,10.4,-,N/A,,Mostly Cloudy,110,2013-09-24 18:15:00
1:35 PM,77.4,52.5,42,29.88,10.0,ESE,16.1,19.6,N/A,,Scattered Clouds,120,2013-09-24 18:35:00
1:55 PM,76.1,52.9,44,29.88,10.0,SE,13.8,-,N/A,,Scattered Clouds,130,2013-09-24 18:55:00
2:15 PM,76.5,53.2,44,29.87,10.0,SE,9.2,16.1,N/A,,Mostly Cloudy,130,2013-09-24 19:15:00
2:35 PM,76.8,53.4,44,29.87,10.0,East,12.7,-,N/A,,Mostly Cloudy,90,2013-09-24 19:35:00
2:55 PM,76.6,53.1,44,29.87,10.0,ESE,6.9,17.3,N/A,,Mostly Cloudy,120,2013-09-24 19:55:00
3:35 PM,76.1,53.4,45,29.87,10.0,East,6.9,-,N/A,,Scattered Clouds,100,2013-09-24 20:35:00
3:55 PM,76.5,53.6,45,29.87,10.0,ESE,10.4,16.1,N/A,,Clear,120,2013-09-24 20:55:00
4:15 PM,76.5,53.8,45,29.87,10.0,East,6.9,-,N/A,,Scattered Clouds,100,2013-09-24 21:15:00
4:35 PM,75.6,54.3,48,29.87,10.0,ESE,6.9,-,N/A,,Scattered Clouds,120,2013-09-24 21:35:00
4:55 PM,75.6,54.5,48,29.87,10.0,East,10.4,-,N/A,,Mostly Cloudy,90,2013-09-24 21:55:00
5:15 PM,74.7,54.5,49,29.87,10.0,East,12.7,-,N/A,,Scattered Clouds,90,2013-09-24 22:15:00
5:35 PM,74.5,54.0,49,29.86,10.0,East,13.8,-,N/A,,Clear,100,2013-09-24 22:35:00
5:55 PM,74.7,54.0,48,29.86,10.0,East,13.8,18.4,N/A,,Clear,100,2013-09-24 22:55:00
6:15 PM,72.9,54.5,52,29.86,10.0,East,8.1,16.1,N/A,,Clear,100,2013-09-24 23:15:00
6:35 PM,71.1,54.7,56,29.86,10.0,East,6.9,-,N/A,,Clear,100,2013-09-24 23:35:00
6:55 PM,68.7,55.4,62,29.85,10.0,East,5.8,-,N/A,,Clear,80,2013-09-24 23:55:00
7:15 PM,66.2,55.6,69,29.85,10.0,East,4.6,-,N/A,,Clear,80,2013-09-25 00:15:00
7:35 PM,65.1,55.4,71,29.86,10.0,NE,4.6,-,N/A,,Clear,40,2013-09-25 00:35:00
7:55 PM,63.5,55.2,74,29.86,10.0,NNE,5.8,-,N/A,,Clear,20,2013-09-25 00:55:00
8:15 PM,62.8,55.4,77,29.87,10.0,North,8.1,-,N/A,,Clear,10,2013-09-25 01:15:00
8:35 PM,63.5,55.2,74,29.88,10.0,NNE,8.1,-,N/A,,Clear,20,2013-09-25 01:35:00
8:55 PM,62.6,54.5,75,29.87,10.0,ENE,5.8,-,N/A,,Clear,60,2013-09-25 01:55:00
9:15 PM,62.1,54.0,75,29.87,10.0,NE,5.8,-,N/A,,Clear,50,2013-09-25 02:15:00
9:35 PM,61.0,53.6,77,29.87,10.0,NNE,6.9,-,N/A,,Scattered Clouds,30,2013-09-25 02:35:00
9:55 PM,60.3,53.6,79,29.88,10.0,NNE,8.1,-,N/A,,Scattered Clouds,20,2013-09-25 02:55:00
10:15 PM,61.2,54.5,79,29.89,10.0,NNE,6.9,-,N/A,,Mostly Cloudy,20,2013-09-25 03:15:00
10:35 PM,63.3,54.0,71,29.89,10.0,NNE,6.9,-,N/A,,Overcast,20,2013-09-25 03:35:00
10:55 PM,64.0,53.1,67,29.89,10.0,NNE,8.1,-,N/A,,Overcast,30,2013-09-25 03:55:00
11:15 PM,64.4,52.2,64,29.89,10.0,NNE,8.1,-,N/A,,Overcast,30,2013-09-25 04:15:00
11:35 PM,63.5,52.3,67,29.89,10.0,NNE,5.8,-,N/A,,Overcast,30,2013-09-25 04:35:00
11:55 PM,62.6,52.2,69,29.89,10.0,NE,5.8,-,N/A,,Overcast,40,2013-09-25 04:55:00